Augusta, GA

5:47 AM EST on February 27, 2017 (GMT -0500)
Augusta Regional At Bush

Weather History for KAGS - August, 2013

Change the Weather History Date:

Saturday, August 31, 2013

  Actual Average Record
Temperature  
Mean Temperature 80 °F 79 °F  
Max Temperature 90 °F 90 °F 100 °F (1998)
Min Temperature 69 °F 67 °F 55 °F (1965)
Degree Days  
Heating Degree Days 0 0  
Month to date heating degree days 0 0  
Since 1 June heating degree days 0 0  
Since 1 July heating degree days 0 0  
Cooling Degree Days 15 14  
Month to date cooling degree days 417 482  
Year to date cooling degree days 1475 1688  
Since 1 June cooling degree days 1266 1405  
Growing Degree Days 30 (Base 50)    
Moisture  
Dew Point 72 °F    
Average Humidity 80    
Maximum Humidity 100    
Minimum Humidity 59    
Precipitation  
Precipitation T in 0.12 in 2.62 in (1978)
Month to date precipitation 5.84 4.32  
Year to date precipitation 45.32 30.87  
Sea Level Pressure  
Sea Level Pressure 29.94 in    
Wind  
Wind Speed 2 mph (South)    
Max Wind Speed 9 mph    
Max Gust Speed 13 mph    
Visibility 5 miles    
Events Fog    
T = Trace of Precipitation, MM = Missing Value Source: NWS Daily Summary

Daily Weather History Graph

Daily Weather History Graph

Search for Another Location

Airport or City:

Trip Planner

Search our weather history database for the weather conditions in past years. The results will help you decide how hot, cold, wet, or windy it might be!

Date:

Astronomy

Aug. 31, 2013 Rise Set
Actual Time 7:01 AM EDT 7:54 PM EDT
Civil Twilight 6:36 AM EDT 8:19 PM EDT
Nautical Twilight 6:06 AM EDT 8:49 PM EDT
Astronomical Twilight 5:35 AM EDT 9:19 PM EDT
Moon 2:37 AM EDT (8/31) 4:43 PM EDT (8/31)
Length of Visible Light 13h 43m
Length of Day
12h 52m
Waning Crescent, 21% of the Moon is Illuminated
Aug 31
Waning Crescent
Sep 5
New
Sep 12
First Quarter
Sep 19
Full
Sep 26
Last Quarter

Hourly Weather History & Observations

Time (EDT) Temp. Heat Index Dew Point Humidity Pressure Visibility Wind Dir Wind Speed Gust Speed Precip Events Conditions
12:24 AM 73.4 °F - 71.6 °F 94% 29.97 in 8.0 mi Calm Calm - N/A   Mostly Cloudy
12:41 AM 73.4 °F - 73.4 °F 100% 29.96 in 5.0 mi Calm Calm - N/A   Mostly Cloudy
12:53 AM 73.9 °F - 73.0 °F 97% 29.96 in 6.0 mi Calm Calm - N/A   Scattered Clouds
1:53 AM 73.0 °F - 72.0 °F 96% 29.95 in 4.0 mi Calm Calm - N/A   Clear
2:27 AM 71.6 °F - 71.6 °F 100% 29.95 in 2.0 mi Calm Calm - N/A   Clear
2:36 AM 71.6 °F - 71.6 °F 100% 29.95 in 5.0 mi Calm Calm - N/A   Clear
2:41 AM 71.6 °F - 71.6 °F 100% 29.95 in 1.8 mi Calm Calm - N/A   Clear
2:44 AM 71.6 °F - 71.6 °F 100% 29.95 in 0.8 mi Calm Calm - N/A   Mist
2:53 AM 71.1 °F - 71.1 °F 100% 29.94 in 0.2 mi Calm Calm - N/A Fog Fog
3:15 AM 71.6 °F - 71.6 °F 100% 29.94 in 0.8 mi Calm Calm - N/A   Mist
3:38 AM 69.8 °F - 69.8 °F 100% 29.94 in 0.2 mi Calm Calm - N/A Fog Fog
3:53 AM 70.0 °F - 70.0 °F 100% 29.94 in 0.5 mi Calm Calm - N/A Fog Fog
4:13 AM 69.8 °F - 69.8 °F 100% 29.94 in 0.2 mi Calm Calm - N/A Fog Fog
4:44 AM 71.6 °F - 71.6 °F 100% 29.93 in 0.5 mi Calm Calm - N/A Fog Fog
4:53 AM 70.0 °F - 70.0 °F 100% 29.93 in 0.5 mi Calm Calm - N/A Fog Fog
5:04 AM 69.8 °F - 69.8 °F 100% 29.94 in 0.2 mi Calm Calm - N/A Fog Fog
5:13 AM 71.6 °F - 71.6 °F 100% 29.93 in 1.0 mi Calm Calm - 0.01 in   Overcast
5:29 AM 69.8 °F - 69.8 °F 100% 29.94 in 3.0 mi Calm Calm - 0.01 in   Overcast
5:41 AM 69.8 °F - 69.8 °F 100% 29.94 in 0.8 mi Calm Calm - 0.01 in   Overcast
5:51 AM 69.8 °F - 69.8 °F 100% 29.94 in 0.2 mi Calm Calm - 0.01 in Fog Fog
5:53 AM 71.1 °F - 70.0 °F 96% 29.94 in 0.2 mi Calm Calm - 0.01 in Fog Fog
6:01 AM 71.6 °F - 71.6 °F 100% 29.94 in 0.5 mi Calm Calm - N/A Fog Fog
6:10 AM 71.6 °F - 71.6 °F 100% 29.95 in 2.0 mi Calm Calm - N/A   Overcast
6:19 AM 71.6 °F - 71.6 °F 100% 29.95 in 4.0 mi Calm Calm - N/A   Overcast
6:33 AM 71.6 °F - 71.6 °F 100% 29.95 in 5.0 mi Calm Calm - N/A   Overcast
6:53 AM 73.0 °F - 72.0 °F 96% 29.96 in 5.0 mi Calm Calm - N/A   Overcast
7:53 AM 73.0 °F - 73.0 °F 100% 29.97 in 5.0 mi Calm Calm - 0.01 in   Overcast
8:53 AM 75.0 °F - 73.9 °F 96% 29.98 in 2.5 mi Calm Calm - N/A   Mostly Cloudy
9:53 AM 79.0 °F - 73.9 °F 84% 29.98 in 5.0 mi Calm Calm - N/A   Haze
10:53 AM 84.0 °F 91.2 °F 73.9 °F 72% 29.98 in 10.0 mi Calm Calm - N/A   Scattered Clouds
11:53 AM 86.0 °F 95.1 °F 75.0 °F 70% 29.97 in 10.0 mi South 5.8 mph - N/A   Partly Cloudy
12:53 PM 89.1 °F 98.0 °F 73.9 °F 61% 29.96 in 10.0 mi Variable 5.8 mph - N/A   Scattered Clouds
1:53 PM 87.1 °F 94.5 °F 73.0 °F 63% 29.94 in 10.0 mi SE 3.5 mph - N/A   Mostly Cloudy
2:53 PM 82.0 °F 88.6 °F 75.0 °F 79% 29.94 in 10.0 mi NW 4.6 mph - 0.00 in   Mostly Cloudy
3:53 PM 89.1 °F 99.1 °F 75.0 °F 63% 29.89 in 10.0 mi Variable 4.6 mph - N/A   Clear
4:53 PM 88.0 °F 95.6 °F 73.0 °F 61% 29.88 in 10.0 mi Calm Calm - N/A   Partly Cloudy
5:53 PM 90.0 °F 97.9 °F 73.0 °F 57% 29.88 in 10.0 mi WSW 6.9 mph - N/A   Clear
6:53 PM 88.0 °F 94.7 °F 72.0 °F 59% 29.88 in 10.0 mi SW 3.5 mph - N/A   Clear
7:53 PM 80.1 °F 85.1 °F 75.0 °F 85% 29.89 in 10.0 mi Calm Calm - N/A   Clear
8:53 PM 77.0 °F - 75.0 °F 94% 29.90 in 9.0 mi Calm Calm - 0.01 in   Clear
9:53 PM 75.9 °F - 75.0 °F 97% 29.91 in 9.0 mi Calm Calm - 0.00 in   Clear
10:53 PM 77.0 °F - 73.9 °F 90% 29.91 in 10.0 mi South 4.6 mph - N/A   Partly Cloudy
11:53 PM 75.9 °F - 73.9 °F 94% 29.91 in 9.0 mi SE 3.5 mph - N/A   Clear